Terminal Aerodrome Forecast
Issued by NWS Portland, OR

Home | Current Version | Previous Version | Text Only | Print | Product List | Glossary On
Versions: 1 2 3 4 5 6 7 8 9 10 11 12 13 14 15 16 17 18 19 20 21 22 23 24 25 26 27 28 29 30 31 32 33 34 35 36 37 38 39
000
FTUS46 KPQR 232121 AAB
TAFTTD
TAF AMD
KTTD 232121Z 2321/2418 24012G20KT P6SM -SHRA SCT025 BKN050 OVC080
      TEMPO 2321/2323 4SM TSRA BKN025 BKN040CB
     FM232300 21005KT P6SM VCSH SCT025 BKN050
     FM240600 10003KT 5SM BR FEW010 BKN030=

USA.gov is the U.S. government's official web portal to all federal, state and local government web resources and services.